Time,TemperatureF,DewpointF,PressureIn,WindDirection,WindDirectionDegrees,WindSpeedMPH,WindSpeedGustMPH,Humidity,HourlyPrecipIn,Conditions,Clouds,dailyrainin,SolarRadiationWatts/m^2,SoftwareType,DateUTC
2013-08-22 00:00:00,69.9,66.8,30.03,SW,219,0.0,0.0,90,0.00,,,0.00,0,Wunderground v.1.15,2013-08-22 04:00:00,
2013-08-22 00:10:00,69.8,66.7,30.04,WSW,250,0.0,0.0,90,0.00,,,0.00,0,Wunderground v.1.15,2013-08-22 04:10:00,
2013-08-22 00:20:00,69.6,66.5,30.04,South,170,0.0,0.0,90,0.00,,,0.00,0,Wunderground v.1.15,2013-08-22 04:20:00,
2013-08-22 00:30:00,69.5,66.8,30.04,West,271,0.0,0.0,91,0.00,,,0.00,0,Wunderground v.1.15,2013-08-22 04:30:00,
2013-08-22 00:40:00,69.2,66.5,30.05,West,263,0.0,0.0,91,0.00,,,0.00,0,Wunderground v.1.15,2013-08-22 04:40:00,
2013-08-22 00:50:00,69.0,66.3,30.05,West,263,0.0,0.0,91,0.00,,,0.00,0,Wunderground v.1.15,2013-08-22 04:50:00,
2013-08-22 01:00:00,69.0,66.3,30.06,West,263,0.0,0.0,91,0.00,,,0.00,0,Wunderground v.1.15,2013-08-22 05:00:00,
2013-08-22 01:10:00,68.9,66.5,30.06,West,263,0.0,0.0,92,0.00,,,0.00,0,Wunderground v.1.15,2013-08-22 05:10:00,
2013-08-22 01:20:00,68.8,66.4,30.06,West,262,0.0,0.0,92,0.00,,,0.00,0,Wunderground v.1.15,2013-08-22 05:20:00,
2013-08-22 01:30:00,68.9,66.8,30.06,West,262,0.0,0.0,93,0.00,,,0.00,0,Wunderground v.1.15,2013-08-22 05:30:00,
2013-08-22 01:40:00,68.8,66.7,30.06,West,262,0.0,0.0,93,0.00,,,0.00,0,Wunderground v.1.15,2013-08-22 05:40:00,
2013-08-22 01:50:00,68.7,66.6,30.06,West,262,0.0,0.0,93,0.00,,,0.00,0,Wunderground v.1.15,2013-08-22 05:50:00,
2013-08-22 02:00:00,68.6,66.5,30.06,West,262,0.0,0.0,93,0.00,,,0.00,0,Wunderground v.1.15,2013-08-22 06:00:00,
2013-08-22 02:10:00,68.6,66.5,30.05,West,262,0.0,0.0,93,0.00,,,0.00,0,Wunderground v.1.15,2013-08-22 06:10:00,
2013-08-22 02:20:00,68.6,66.5,30.05,WSW,254,0.0,0.0,93,0.00,,,0.00,0,Wunderground v.1.15,2013-08-22 06:20:00,
2013-08-22 02:30:00,68.6,66.5,30.04,WSW,254,0.0,0.0,93,0.00,,,0.00,0,Wunderground v.1.15,2013-08-22 06:30:00,
2013-08-22 02:40:00,68.6,66.5,30.04,WSW,250,0.0,0.0,93,0.00,,,0.00,0,Wunderground v.1.15,2013-08-22 06:40:00,
2013-08-22 02:50:00,68.8,66.7,30.04,WSW,250,0.0,0.0,93,0.00,,,0.00,0,Wunderground v.1.15,2013-08-22 06:50:00,
2013-08-22 03:00:00,68.9,66.8,30.04,WSW,250,0.0,0.0,93,0.00,,,0.00,0,Wunderground v.1.15,2013-08-22 07:00:00,
2013-08-22 03:10:00,68.9,66.8,30.04,WSW,250,0.0,0.0,93,0.00,,,0.00,0,Wunderground v.1.15,2013-08-22 07:10:00,
2013-08-22 03:20:00,68.9,66.8,30.04,WSW,250,0.0,0.0,93,0.00,,,0.00,0,Wunderground v.1.15,2013-08-22 07:20:00,
2013-08-22 03:30:00,69.0,66.9,30.03,WSW,250,0.0,0.0,93,0.00,,,0.00,0,Wunderground v.1.15,2013-08-22 07:30:00,
2013-08-22 03:40:00,68.9,66.8,30.04,WSW,250,0.0,0.0,93,0.00,,,0.00,0,Wunderground v.1.15,2013-08-22 07:40:00,
2013-08-22 03:50:00,68.8,66.7,30.03,WSW,250,0.0,0.0,93,0.00,,,0.00,0,Wunderground v.1.15,2013-08-22 07:50:00,
2013-08-22 04:00:00,68.5,66.4,30.03,WSW,250,0.0,0.0,93,0.00,,,0.00,0,Wunderground v.1.15,2013-08-22 08:00:00,
2013-08-22 04:10:00,68.2,66.1,30.02,WSW,250,0.0,0.0,93,0.00,,,0.00,0,Wunderground v.1.15,2013-08-22 08:10:00,
2013-08-22 04:20:00,67.9,65.8,30.01,WSW,250,0.0,0.0,93,0.00,,,0.00,0,Wunderground v.1.15,2013-08-22 08:20:00,
2013-08-22 04:30:00,67.6,65.8,30.01,WSW,250,0.0,0.0,94,0.00,,,0.00,0,Wunderground v.1.15,2013-08-22 08:30:00,
2013-08-22 04:40:00,67.6,66.1,30.00,WSW,250,0.0,0.0,95,0.00,,,0.00,0,Wunderground v.1.15,2013-08-22 08:40:00,
2013-08-22 04:50:00,67.6,66.1,30.00,WSW,250,0.0,0.0,95,0.00,,,0.00,0,Wunderground v.1.15,2013-08-22 08:50:00,
2013-08-22 05:00:00,67.6,66.1,30.01,WSW,250,0.0,0.0,95,0.00,,,0.00,0,Wunderground v.1.15,2013-08-22 09:00:00,
2013-08-22 05:10:00,67.6,66.1,30.00,WSW,250,0.0,0.0,95,0.00,,,0.00,0,Wunderground v.1.15,2013-08-22 09:10:00,
2013-08-22 05:20:00,67.5,66.0,30.00,WSW,250,0.0,0.0,95,0.00,,,0.00,0,Wunderground v.1.15,2013-08-22 09:20:00,
2013-08-22 05:30:00,67.5,66.0,30.00,WSW,250,0.0,0.0,95,0.00,,,0.00,0,Wunderground v.1.15,2013-08-22 09:30:00,
2013-08-22 05:40:00,67.2,65.7,30.00,WSW,250,0.0,0.0,95,0.00,,,0.00,0,Wunderground v.1.15,2013-08-22 09:40:00,
2013-08-22 05:50:00,67.4,65.9,30.01,WSW,250,0.0,0.0,95,0.00,,,0.00,0,Wunderground v.1.15,2013-08-22 09:50:00,
2013-08-22 06:00:00,67.5,66.0,30.02,WSW,250,0.0,0.0,95,0.00,,,0.00,0,Wunderground v.1.15,2013-08-22 10:00:00,
2013-08-22 06:10:00,67.5,66.0,30.03,WSW,250,0.0,0.0,95,0.00,,,0.00,0,Wunderground v.1.15,2013-08-22 10:10:00,
2013-08-22 06:20:00,67.7,66.2,30.03,WSW,250,0.0,0.0,95,0.00,,,0.00,0,Wunderground v.1.15,2013-08-22 10:20:00,
2013-08-22 06:30:00,67.7,66.2,30.03,WSW,250,0.0,0.0,95,0.00,,,0.00,0,Wunderground v.1.15,2013-08-22 10:30:00,
2013-08-22 06:40:00,67.7,66.2,30.03,WSW,250,0.0,0.0,95,0.00,,,0.00,0,Wunderground v.1.15,2013-08-22 10:40:00,
2013-08-22 06:50:00,67.7,66.2,30.04,WSW,250,0.0,0.0,95,0.00,,,0.00,7,Wunderground v.1.15,2013-08-22 10:50:00,
2013-08-22 08:30:00,71.5,68.7,30.03,WSW,237,0.0,0.0,91,0.00,,,0.00,169,Wunderground v.1.15,2013-08-22 12:30:00,
2013-08-22 08:40:00,72.2,68.8,30.03,SW,232,0.0,0.0,89,0.00,,,0.00,179,Wunderground v.1.15,2013-08-22 12:40:00,
2013-08-22 08:50:00,72.8,69.0,30.03,SW,230,0.0,0.0,88,0.00,,,0.00,211,Wunderground v.1.15,2013-08-22 12:50:00,
2013-08-22 09:00:00,73.3,69.5,30.03,West,265,1.0,1.0,88,0.00,,,0.00,239,Wunderground v.1.15,2013-08-22 13:00:00,
2013-08-22 09:10:00,74.3,69.5,30.03,WSW,255,2.0,4.0,85,0.00,,,0.00,570,Wunderground v.1.15,2013-08-22 13:10:00,
2013-08-22 09:20:00,74.5,68.6,30.03,WSW,253,3.0,4.0,82,0.00,,,0.00,227,Wunderground v.1.15,2013-08-22 13:20:00,
2013-08-22 09:30:00,74.9,69.4,30.03,WSW,252,2.0,2.0,83,0.00,,,0.00,504,Wunderground v.1.15,2013-08-22 13:30:00,
2013-08-22 09:40:00,77.0,70.0,30.03,WSW,252,1.0,1.0,79,0.00,,,0.00,580,Wunderground v.1.15,2013-08-22 13:40:00,
2013-08-22 09:50:00,77.1,68.6,30.04,WSW,257,1.0,4.0,75,0.00,,,0.00,738,Wunderground v.1.15,2013-08-22 13:50:00,
2013-08-22 10:00:00,76.8,68.3,30.04,WSW,255,1.0,1.0,75,0.00,,,0.00,346,Wunderground v.1.15,2013-08-22 14:00:00,
2013-08-22 10:10:00,77.0,68.9,30.04,WSW,255,0.0,0.0,76,0.00,,,0.00,313,Wunderground v.1.15,2013-08-22 14:10:00,
2013-08-22 10:20:00,76.7,68.6,30.04,WSW,254,1.0,1.0,76,0.00,,,0.00,380,Wunderground v.1.15,2013-08-22 14:20:00,
2013-08-22 10:30:00,77.2,68.7,30.04,WSW,254,0.0,0.0,75,0.00,,,0.00,381,Wunderground v.1.15,2013-08-22 14:30:00,
2013-08-22 10:40:00,77.6,69.0,30.04,West,261,0.0,0.0,75,0.00,,,0.00,413,Wunderground v.1.15,2013-08-22 14:40:00,
2013-08-22 10:50:00,78.5,69.5,30.03,West,261,0.0,0.0,74,0.00,,,0.00,561,Wunderground v.1.15,2013-08-22 14:50:00,
2013-08-22 11:00:00,79.0,69.2,30.03,West,275,1.0,4.0,72,0.00,,,0.00,369,Wunderground v.1.15,2013-08-22 15:00:00,
2013-08-22 11:10:00,79.7,69.5,30.03,WSW,255,1.0,3.0,71,0.00,,,0.00,555,Wunderground v.1.15,2013-08-22 15:10:00,
2013-08-22 11:20:00,80.3,69.2,30.03,West,264,3.0,4.0,69,0.00,,,0.00,461,Wunderground v.1.15,2013-08-22 15:20:00,
2013-08-22 11:30:00,81.5,69.0,30.03,WNW,282,3.0,3.0,66,0.00,,,0.00,990,Wunderground v.1.15,2013-08-22 15:30:00,
2013-08-22 11:40:00,81.7,69.7,30.04,West,273,2.0,4.0,67,0.00,,,0.00,577,Wunderground v.1.15,2013-08-22 15:40:00,
2013-08-22 11:50:00,80.8,67.9,30.03,West,281,3.0,3.0,65,0.00,,,0.00,380,Wunderground v.1.15,2013-08-22 15:50:00,
2013-08-22 12:00:00,80.8,68.4,30.03,WSW,258,4.0,7.0,66,0.00,,,0.00,476,Wunderground v.1.15,2013-08-22 16:00:00,
2013-08-22 12:10:00,80.4,68.4,30.03,West,269,3.0,3.0,67,0.00,,,0.00,450,Wunderground v.1.15,2013-08-22 16:10:00,
2013-08-22 12:20:00,80.5,68.1,30.03,West,262,3.0,3.0,66,0.00,,,0.00,352,Wunderground v.1.15,2013-08-22 16:20:00,
2013-08-22 12:30:00,80.4,68.0,30.02,WNW,286,2.0,2.0,66,0.00,,,0.00,413,Wunderground v.1.15,2013-08-22 16:30:00,
2013-08-22 12:40:00,81.0,68.1,30.01,West,270,1.0,1.0,65,0.00,,,0.00,722,Wunderground v.1.15,2013-08-22 16:40:00,
2013-08-22 12:50:00,81.9,69.4,30.01,West,261,1.0,3.0,66,0.00,,,0.00,998,Wunderground v.1.15,2013-08-22 16:50:00,
2013-08-22 13:00:00,81.0,68.1,30.00,WSW,257,3.0,4.0,65,0.00,,,0.00,417,Wunderground v.1.15,2013-08-22 17:00:00,
2013-08-22 13:10:00,80.7,68.3,30.00,West,265,2.0,2.0,66,0.00,,,0.00,355,Wunderground v.1.15,2013-08-22 17:10:00,
2013-08-22 13:20:00,81.4,69.4,30.01,West,260,1.0,1.0,67,0.00,,,0.00,387,Wunderground v.1.15,2013-08-22 17:20:00,
2013-08-22 13:30:00,81.9,68.5,30.00,West,262,2.0,2.0,64,0.00,,,0.00,406,Wunderground v.1.15,2013-08-22 17:30:00,
2013-08-22 13:40:00,82.3,69.4,29.99,West,269,1.0,1.0,65,0.00,,,0.00,603,Wunderground v.1.15,2013-08-22 17:40:00,
2013-08-22 13:50:00,81.2,68.8,29.99,WSW,247,1.0,1.0,66,0.00,,,0.00,439,Wunderground v.1.15,2013-08-22 17:50:00,
2013-08-22 14:00:00,81.3,69.7,29.99,West,259,1.0,1.0,68,0.00,,,0.00,376,Wunderground v.1.15,2013-08-22 18:00:00,
2013-08-22 14:10:00,81.9,70.3,29.98,WNW,292,0.0,0.0,68,0.00,,,0.00,373,Wunderground v.1.15,2013-08-22 18:10:00,
2013-08-22 14:20:00,81.8,70.2,29.98,West,259,1.0,1.0,68,0.00,,,0.00,417,Wunderground v.1.15,2013-08-22 18:20:00,
2013-08-22 14:30:00,82.0,70.8,29.98,WSW,249,1.0,1.0,69,0.00,,,0.00,431,Wunderground v.1.15,2013-08-22 18:30:00,
2013-08-22 14:40:00,82.1,70.5,29.98,West,260,1.0,1.0,68,0.00,,,0.00,492,Wunderground v.1.15,2013-08-22 18:40:00,
2013-08-22 14:50:00,83.0,71.8,29.97,WSW,255,0.0,0.0,69,0.00,,,0.00,926,Wunderground v.1.15,2013-08-22 18:50:00,
2013-08-22 16:50:00,85.8,70.3,29.92,West,259,2.0,6.0,60,0.00,,,0.00,422,Wunderground v.1.15,2013-08-22 20:50:00,
2013-08-22 17:00:00,85.2,70.7,29.92,West,264,2.0,2.0,62,0.00,,,0.00,385,Wunderground v.1.15,2013-08-22 21:00:00,
2013-08-22 17:10:00,85.7,70.2,29.92,West,263,1.0,3.0,60,0.00,,,0.00,431,Wunderground v.1.15,2013-08-22 21:10:00,
2013-08-22 17:20:00,86.0,70.5,29.92,West,273,1.0,1.0,60,0.00,,,0.00,388,Wunderground v.1.15,2013-08-22 21:20:00,
2013-08-22 17:30:00,85.8,71.3,29.92,WSW,251,2.0,2.0,62,0.00,,,0.00,294,Wunderground v.1.15,2013-08-22 21:30:00,
2013-08-22 17:40:00,85.6,70.1,29.92,West,268,1.0,1.0,60,0.00,,,0.00,281,Wunderground v.1.15,2013-08-22 21:40:00,
2013-08-22 17:50:00,84.1,69.7,29.92,West,273,1.0,1.0,62,0.00,,,0.00,121,Wunderground v.1.15,2013-08-22 21:50:00,
2013-08-22 18:00:00,83.2,70.2,29.91,West,268,0.0,3.0,65,0.00,,,0.00,62,Wunderground v.1.15,2013-08-22 22:00:00,
2013-08-22 18:10:00,82.9,69.9,29.91,WSW,254,1.0,1.0,65,0.00,,,0.00,105,Wunderground v.1.15,2013-08-22 22:10:00,
2013-08-22 18:20:00,83.0,70.5,29.91,West,262,0.0,0.0,66,0.00,,,0.00,91,Wunderground v.1.15,2013-08-22 22:20:00,
2013-08-22 18:30:00,82.8,70.3,29.90,West,262,0.0,0.0,66,0.00,,,0.00,67,Wunderground v.1.15,2013-08-22 22:30:00,
2013-08-22 18:40:00,82.3,70.2,29.90,SW,235,0.0,0.0,67,0.00,,,0.00,28,Wunderground v.1.15,2013-08-22 22:40:00,
2013-08-22 18:50:00,81.9,69.9,29.89,WSW,244,0.0,0.0,67,0.00,,,0.00,25,Wunderground v.1.15,2013-08-22 22:50:00,
2013-08-22 19:00:00,80.9,70.2,29.90,WSW,244,0.0,0.0,70,0.00,,,0.00,21,Wunderground v.1.15,2013-08-22 23:00:00,
2013-08-22 19:10:00,80.5,70.2,29.90,WSW,244,0.0,0.0,71,0.00,,,0.00,30,Wunderground v.1.15,2013-08-22 23:10:00,
2013-08-22 19:20:00,80.2,70.4,29.89,WSW,244,0.0,0.0,72,0.00,,,0.00,19,Wunderground v.1.15,2013-08-22 23:20:00,
2013-08-22 19:30:00,79.8,70.0,29.90,WSW,244,0.0,0.0,72,0.00,,,0.00,16,Wunderground v.1.15,2013-08-22 23:30:00,
2013-08-22 19:40:00,78.9,69.9,29.90,WSW,244,0.0,0.0,74,0.00,,,0.00,7,Wunderground v.1.15,2013-08-22 23:40:00,
2013-08-22 19:50:00,78.1,69.9,29.91,WSW,244,0.0,0.0,76,0.00,,,0.00,0,Wunderground v.1.15,2013-08-22 23:50:00,
2013-08-22 20:00:00,77.0,70.0,29.92,West,281,0.0,0.0,79,0.00,,,0.00,0,Wunderground v.1.15,2013-08-23 00:00:00,
2013-08-22 20:10:00,76.9,69.5,29.92,WNW,289,0.0,0.0,78,0.00,,,0.00,0,Wunderground v.1.15,2013-08-23 00:10:00,
2013-08-22 20:20:00,76.5,69.1,29.92,WNW,289,0.0,0.0,78,0.00,,,0.00,0,Wunderground v.1.15,2013-08-23 00:20:00,
2013-08-22 20:30:00,77.2,69.0,29.93,WNW,289,0.0,0.0,76,0.00,,,0.00,0,Wunderground v.1.15,2013-08-23 00:30:00,
2013-08-22 20:40:00,75.3,69.1,29.92,WNW,289,0.0,0.0,81,0.00,,,0.00,0,Wunderground v.1.15,2013-08-23 00:40:00,
2013-08-22 20:50:00,74.1,68.6,29.92,WNW,289,0.0,0.0,83,0.00,,,0.00,0,Wunderground v.1.15,2013-08-23 00:50:00,
2013-08-22 21:00:00,73.2,68.8,29.93,WNW,289,0.0,0.0,86,0.00,,,0.00,0,Wunderground v.1.15,2013-08-23 01:00:00,
2013-08-22 21:10:00,73.8,68.7,29.93,WNW,289,0.0,0.0,84,0.00,,,0.00,0,Wunderground v.1.15,2013-08-23 01:10:00,
2013-08-22 21:20:00,75.1,67.8,29.93,WNW,289,0.0,0.0,78,0.00,,,0.00,0,Wunderground v.1.15,2013-08-23 01:20:00,
2013-08-22 21:30:00,75.3,67.2,29.94,WNW,289,0.0,0.0,76,0.00,,,0.00,0,Wunderground v.1.15,2013-08-23 01:30:00,
2013-08-22 21:40:00,74.2,66.9,29.94,WNW,289,0.0,0.0,78,0.00,,,0.00,0,Wunderground v.1.15,2013-08-23 01:40:00,
2013-08-22 21:50:00,72.8,66.6,29.94,WNW,289,0.0,0.0,81,0.00,,,0.00,0,Wunderground v.1.15,2013-08-23 01:50:00,
2013-08-22 22:00:00,71.6,66.5,29.94,WNW,289,0.0,0.0,84,0.00,,,0.00,0,Wunderground v.1.15,2013-08-23 02:00:00,
2013-08-22 22:10:00,70.9,66.2,29.94,WNW,289,0.0,0.0,85,0.00,,,0.00,0,Wunderground v.1.15,2013-08-23 02:10:00,
2013-08-22 22:20:00,69.9,65.9,29.94,WNW,289,0.0,0.0,87,0.00,,,0.00,0,Wunderground v.1.15,2013-08-23 02:20:00,
2013-08-22 22:30:00,69.8,66.1,29.94,WNW,289,0.0,0.0,88,0.00,,,0.00,0,Wunderground v.1.15,2013-08-23 02:30:00,
2013-08-22 22:40:00,69.5,65.8,29.94,WNW,289,0.0,0.0,88,0.00,,,0.00,0,Wunderground v.1.15,2013-08-23 02:40:00,
2013-08-22 22:50:00,69.0,65.9,29.94,WNW,289,0.0,0.0,90,0.00,,,0.00,0,Wunderground v.1.15,2013-08-23 02:50:00,
2013-08-22 23:00:00,68.8,66.1,29.94,WNW,289,0.0,0.0,91,0.00,,,0.00,0,Wunderground v.1.15,2013-08-23 03:00:00,
2013-08-22 23:10:00,68.8,65.7,29.95,WNW,289,0.0,0.0,90,0.00,,,0.00,0,Wunderground v.1.15,2013-08-23 03:10:00,
2013-08-22 23:20:00,69.8,66.1,29.95,WNW,289,0.0,0.0,88,0.00,,,0.00,0,Wunderground v.1.15,2013-08-23 03:20:00,
2013-08-22 23:30:00,69.9,65.9,29.94,WNW,289,0.0,0.0,87,0.00,,,0.00,0,Wunderground v.1.15,2013-08-23 03:30:00,
2013-08-22 23:40:00,70.0,66.0,29.95,WNW,289,0.0,0.0,87,0.00,,,0.00,0,Wunderground v.1.15,2013-08-23 03:40:00,
2013-08-22 23:50:00,69.9,66.2,29.95,WNW,289,0.0,0.0,88,0.00,,,0.00,0,Wunderground v.1.15,2013-08-23 03:50:00,